Time,TemperatureF,DewpointF,PressureIn,WindDirection,WindDirectionDegrees,WindSpeedMPH,WindSpeedGustMPH,Humidity,HourlyPrecipIn,Conditions,Clouds,dailyrainin,SoftwareType,DateUTC
2013-01-12 00:00:00,45.0,44.5,30.09,SW,234,0.0,-999.0,98,0.00,,,0.10,Wunderground v.1.15,2013-01-12 05:00:00,
2013-01-12 00:02:00,44.9,44.4,30.09,SW,234,0.0,-999.0,98,0.00,,,0.10,Wunderground v.1.15,2013-01-12 05:02:00,
2013-01-12 00:03:00,44.9,44.1,30.09,SW,234,0.0,-999.0,97,0.00,,,0.10,Wunderground v.1.15,2013-01-12 05:03:00,
2013-01-12 00:05:00,45.0,44.2,30.09,NW,320,0.0,-999.0,97,0.00,,,0.10,Wunderground v.1.15,2013-01-12 05:05:00,
2013-01-12 00:11:00,45.0,44.5,30.10,NW,319,0.0,-999.0,98,0.00,,,0.10,Wunderground v.1.15,2013-01-12 05:11:00,
2013-01-12 00:17:00,45.0,44.5,30.09,NW,319,0.0,-999.0,98,0.00,,,0.00,Wunderground v.1.15,2013-01-12 05:17:00,
2013-01-12 00:22:00,45.0,44.2,30.09,NW,320,0.0,-999.0,97,0.00,,,0.00,Wunderground v.1.15,2013-01-12 05:22:00,
2013-01-12 00:28:00,44.9,44.4,30.10,NW,320,0.0,-999.0,98,0.00,,,0.00,Wunderground v.1.15,2013-01-12 05:28:00,
2013-01-12 00:34:00,45.0,44.5,30.09,NW,320,0.0,-999.0,98,0.00,,,0.00,Wunderground v.1.15,2013-01-12 05:34:00,
2013-01-12 00:40:00,45.0,44.5,30.10,NW,320,0.0,-999.0,98,0.00,,,0.00,Wunderground v.1.15,2013-01-12 05:40:00,
2013-01-12 00:46:00,45.0,44.5,30.09,WSW,243,0.0,-999.0,98,0.00,,,0.00,Wunderground v.1.15,2013-01-12 05:46:00,
2013-01-12 00:51:00,45.0,44.5,30.09,WSW,243,0.0,-999.0,98,0.00,,,0.00,Wunderground v.1.15,2013-01-12 05:51:00,
2013-01-12 00:56:00,45.0,44.5,30.09,WSW,243,0.0,-999.0,98,0.00,,,0.00,Wunderground v.1.15,2013-01-12 05:56:00,
2013-01-12 01:02:00,45.0,44.5,30.09,WSW,242,0.0,-999.0,98,0.00,,,0.00,Wunderground v.1.15,2013-01-12 06:02:00,
2013-01-12 01:07:00,45.0,44.5,30.09,WSW,243,0.0,-999.0,98,0.00,,,0.00,Wunderground v.1.15,2013-01-12 06:07:00,
2013-01-12 01:12:00,45.0,44.5,30.09,WSW,243,0.0,-999.0,98,0.00,,,0.00,Wunderground v.1.15,2013-01-12 06:12:00,
2013-01-12 01:18:00,45.0,44.5,30.10,WSW,243,0.0,-999.0,98,0.00,,,0.00,Wunderground v.1.15,2013-01-12 06:18:00,
2013-01-12 01:23:00,45.0,44.5,30.10,WSW,243,0.0,-999.0,98,0.00,,,0.00,Wunderground v.1.15,2013-01-12 06:23:00,
2013-01-12 01:28:00,45.0,44.5,30.10,WSW,242,0.0,-999.0,98,0.00,,,0.00,Wunderground v.1.15,2013-01-12 06:28:00,
2013-01-12 01:33:00,45.0,44.5,30.10,WSW,243,0.0,-999.0,98,0.00,,,0.00,Wunderground v.1.15,2013-01-12 06:33:00,
2013-01-12 01:38:00,45.0,44.5,30.10,WSW,242,0.0,-999.0,98,0.00,,,0.00,Wunderground v.1.15,2013-01-12 06:38:00,
2013-01-12 01:43:00,45.0,44.5,30.10,WSW,243,0.0,-999.0,98,0.00,,,0.00,Wunderground v.1.15,2013-01-12 06:43:00,
2013-01-12 01:49:00,45.0,44.2,30.10,WSW,243,0.0,-999.0,97,0.00,,,0.00,Wunderground v.1.15,2013-01-12 06:49:00,
2013-01-12 01:54:00,45.0,44.2,30.10,WSW,242,0.0,-999.0,97,0.00,,,0.00,Wunderground v.1.15,2013-01-12 06:54:00,
2013-01-12 01:59:00,45.0,44.2,30.11,WSW,243,0.0,-999.0,97,0.00,,,0.00,Wunderground v.1.15,2013-01-12 06:59:00,
2013-01-12 02:04:00,45.0,44.2,30.11,WSW,243,0.0,-999.0,97,0.00,,,0.00,Wunderground v.1.15,2013-01-12 07:04:00,
2013-01-12 02:09:00,44.9,44.1,30.11,WSW,242,0.0,-999.0,97,0.00,,,0.00,Wunderground v.1.15,2013-01-12 07:09:00,
2013-01-12 02:14:00,45.0,44.2,30.11,WSW,242,0.0,-999.0,97,0.00,,,0.00,Wunderground v.1.15,2013-01-12 07:14:00,
2013-01-12 02:19:00,45.0,44.2,30.11,WSW,243,0.0,-999.0,97,0.00,,,0.00,Wunderground v.1.15,2013-01-12 07:19:00,
2013-01-12 02:24:00,45.0,44.2,30.10,WSW,242,0.0,-999.0,97,0.00,,,0.00,Wunderground v.1.15,2013-01-12 07:24:00,
2013-01-12 02:29:00,45.0,44.2,30.11,WSW,243,0.0,-999.0,97,0.00,,,0.00,Wunderground v.1.15,2013-01-12 07:29:00,
2013-01-12 02:34:00,45.0,44.2,30.11,WSW,243,0.0,-999.0,97,0.00,,,0.00,Wunderground v.1.15,2013-01-12 07:34:00,
2013-01-12 02:39:00,44.9,44.1,30.11,WSW,243,0.0,-999.0,97,0.00,,,0.00,Wunderground v.1.15,2013-01-12 07:39:00,
2013-01-12 02:44:00,44.9,44.1,30.11,WSW,242,0.0,-999.0,97,0.00,,,0.00,Wunderground v.1.15,2013-01-12 07:44:00,
2013-01-12 02:50:00,44.9,44.1,30.11,WSW,243,0.0,-999.0,97,0.00,,,0.00,Wunderground v.1.15,2013-01-12 07:50:00,
2013-01-12 02:55:00,44.9,44.1,30.11,WSW,243,0.0,-999.0,97,0.00,,,0.00,Wunderground v.1.15,2013-01-12 07:55:00,
2013-01-12 03:00:00,44.9,44.4,30.11,WSW,242,0.0,-999.0,98,0.00,,,0.00,Wunderground v.1.15,2013-01-12 08:00:00,
2013-01-12 03:05:00,44.9,44.4,30.11,NNW,336,1.0,-999.0,98,0.00,,,0.00,Wunderground v.1.15,2013-01-12 08:05:00,
2013-01-12 03:10:00,44.8,44.3,30.11,NNW,336,0.0,-999.0,98,0.00,,,0.00,Wunderground v.1.15,2013-01-12 08:10:00,
2013-01-12 03:15:00,44.8,44.3,30.11,NNW,336,0.0,-999.0,98,0.00,,,0.00,Wunderground v.1.15,2013-01-12 08:15:00,
2013-01-12 03:20:00,44.8,44.3,30.11,NNW,336,0.0,-999.0,98,0.00,,,0.00,Wunderground v.1.15,2013-01-12 08:20:00,
2013-01-12 03:25:00,44.7,44.2,30.11,NNW,336,0.0,-999.0,98,0.00,,,0.00,Wunderground v.1.15,2013-01-12 08:25:00,
2013-01-12 03:30:00,44.8,44.3,30.11,NNW,336,0.0,-999.0,98,0.00,,,0.00,Wunderground v.1.15,2013-01-12 08:30:00,
2013-01-12 03:36:00,44.7,44.2,30.10,NNW,336,0.0,-999.0,98,0.00,,,0.00,Wunderground v.1.15,2013-01-12 08:36:00,
2013-01-12 03:41:00,44.7,44.2,30.10,NNW,336,0.0,-999.0,98,0.00,,,0.00,Wunderground v.1.15,2013-01-12 08:41:00,
2013-01-12 03:46:00,44.7,44.2,30.10,NNW,336,0.0,-999.0,98,0.00,,,0.00,Wunderground v.1.15,2013-01-12 08:46:00,
2013-01-12 03:51:00,44.7,44.2,30.10,NNW,336,0.0,-999.0,98,0.00,,,0.00,Wunderground v.1.15,2013-01-12 08:51:00,
2013-01-12 03:56:00,44.7,44.2,30.10,NNW,336,0.0,-999.0,98,0.00,,,0.00,Wunderground v.1.15,2013-01-12 08:56:00,
2013-01-12 04:01:00,44.6,44.1,30.10,NNW,336,0.0,-999.0,98,0.00,,,0.00,Wunderground v.1.15,2013-01-12 09:01:00,
2013-01-12 04:06:00,44.6,44.1,30.10,NNW,336,0.0,-999.0,98,0.00,,,0.00,Wunderground v.1.15,2013-01-12 09:06:00,
2013-01-12 04:11:00,44.5,44.0,30.10,NNW,336,0.0,-999.0,98,0.00,,,0.00,Wunderground v.1.15,2013-01-12 09:11:00,
2013-01-12 04:16:00,44.5,44.0,30.10,NNW,336,0.0,-999.0,98,0.00,,,0.00,Wunderground v.1.15,2013-01-12 09:16:00,
2013-01-12 04:22:00,44.4,43.9,30.10,NNW,336,0.0,-999.0,98,0.00,,,0.00,Wunderground v.1.15,2013-01-12 09:22:00,
2013-01-12 04:27:00,44.3,43.8,30.10,NNW,336,0.0,-999.0,98,0.00,,,0.00,Wunderground v.1.15,2013-01-12 09:27:00,
2013-01-12 04:32:00,44.3,43.8,30.10,NNW,336,0.0,-999.0,98,0.00,,,0.00,Wunderground v.1.15,2013-01-12 09:32:00,
2013-01-12 04:37:00,44.3,43.8,30.10,NNW,336,0.0,-999.0,98,0.00,,,0.00,Wunderground v.1.15,2013-01-12 09:37:00,
2013-01-12 04:42:00,44.2,43.7,30.09,NNW,336,0.0,-999.0,98,0.00,,,0.00,Wunderground v.1.15,2013-01-12 09:42:00,
2013-01-12 04:47:00,44.1,43.6,30.10,NNW,336,0.0,-999.0,98,0.00,,,0.00,Wunderground v.1.15,2013-01-12 09:47:00,
2013-01-12 04:52:00,44.2,43.7,30.10,NNW,336,0.0,-999.0,98,0.00,,,0.00,Wunderground v.1.15,2013-01-12 09:52:00,
2013-01-12 04:57:00,44.1,43.6,30.10,NNW,336,0.0,-999.0,98,0.00,,,0.00,Wunderground v.1.15,2013-01-12 09:57:00,
2013-01-12 05:02:00,44.1,43.6,30.11,NNW,336,0.0,-999.0,98,0.00,,,0.00,Wunderground v.1.15,2013-01-12 10:02:00,
2013-01-12 05:07:00,44.1,43.6,30.11,NNW,336,0.0,-999.0,98,0.00,,,0.00,Wunderground v.1.15,2013-01-12 10:07:00,
2013-01-12 05:13:00,44.1,43.6,30.10,NNW,336,0.0,-999.0,98,0.00,,,0.00,Wunderground v.1.15,2013-01-12 10:13:00,
2013-01-12 05:18:00,44.1,43.6,30.11,NNW,336,0.0,-999.0,98,0.00,,,0.00,Wunderground v.1.15,2013-01-12 10:18:00,
2013-01-12 05:23:00,44.0,43.5,30.11,NNW,336,0.0,-999.0,98,0.00,,,0.00,Wunderground v.1.15,2013-01-12 10:23:00,
2013-01-12 05:28:00,44.0,43.5,30.11,NNW,336,0.0,-999.0,98,0.00,,,0.00,Wunderground v.1.15,2013-01-12 10:28:00,
2013-01-12 05:33:00,44.0,43.5,30.11,NNW,336,0.0,-999.0,98,0.00,,,0.00,Wunderground v.1.15,2013-01-12 10:33:00,
2013-01-12 05:38:00,44.0,43.5,30.11,NNW,336,0.0,-999.0,98,0.00,,,0.00,Wunderground v.1.15,2013-01-12 10:38:00,
2013-01-12 05:43:00,44.1,43.6,30.10,NNW,336,0.0,-999.0,98,0.00,,,0.00,Wunderground v.1.15,2013-01-12 10:43:00,
2013-01-12 05:49:00,44.0,43.5,30.11,NNW,336,0.0,-999.0,98,0.00,,,0.00,Wunderground v.1.15,2013-01-12 10:49:00,
2013-01-12 05:54:00,44.0,43.5,30.11,NNW,336,0.0,-999.0,98,0.00,,,0.00,Wunderground v.1.15,2013-01-12 10:54:00,
2013-01-12 05:59:00,44.0,43.5,30.11,NNW,336,0.0,-999.0,98,0.00,,,0.00,Wunderground v.1.15,2013-01-12 10:59:00,
2013-01-12 06:04:00,44.0,43.5,30.11,NNW,336,0.0,-999.0,98,0.00,,,0.00,Wunderground v.1.15,2013-01-12 11:04:00,
2013-01-12 06:09:00,44.0,43.5,30.11,NNW,336,0.0,-999.0,98,0.00,,,0.00,Wunderground v.1.15,2013-01-12 11:09:00,
2013-01-12 06:14:00,43.9,43.4,30.12,NNW,336,0.0,-999.0,98,0.00,,,0.00,Wunderground v.1.15,2013-01-12 11:14:00,
2013-01-12 06:19:00,43.9,43.4,30.12,NNW,336,0.0,-999.0,98,0.00,,,0.00,Wunderground v.1.15,2013-01-12 11:19:00,
2013-01-12 06:24:00,43.9,43.4,30.11,NNW,336,0.0,-999.0,98,0.00,,,0.00,Wunderground v.1.15,2013-01-12 11:24:00,
2013-01-12 06:30:00,43.8,43.3,30.12,NNW,336,0.0,-999.0,98,0.00,,,0.00,Wunderground v.1.15,2013-01-12 11:30:00,
2013-01-12 06:35:00,43.8,43.3,30.12,NNW,336,0.0,-999.0,98,0.00,,,0.00,Wunderground v.1.15,2013-01-12 11:35:00,
2013-01-12 06:40:00,43.8,43.3,30.12,ENE,59,0.0,-999.0,98,0.00,,,0.00,Wunderground v.1.15,2013-01-12 11:40:00,
2013-01-12 06:45:00,43.8,43.3,30.13,ENE,59,0.0,-999.0,98,0.00,,,0.00,Wunderground v.1.15,2013-01-12 11:45:00,
2013-01-12 06:50:00,43.7,43.2,30.13,NNE,32,2.0,-999.0,98,0.00,,,0.00,Wunderground v.1.15,2013-01-12 11:50:00,
2013-01-12 06:55:00,43.7,43.2,30.13,NNE,32,1.0,-999.0,98,0.00,,,0.00,Wunderground v.1.15,2013-01-12 11:55:00,
2013-01-12 07:00:00,43.5,43.0,30.13,NNE,32,0.0,-999.0,98,0.00,,,0.00,Wunderground v.1.15,2013-01-12 12:00:00,
2013-01-12 07:05:00,43.4,42.9,30.13,NNE,32,0.0,-999.0,98,0.00,,,0.00,Wunderground v.1.15,2013-01-12 12:05:00,
2013-01-12 07:10:00,43.4,42.9,30.14,NNE,32,0.0,-999.0,98,0.00,,,0.00,Wunderground v.1.15,2013-01-12 12:10:00,
2013-01-12 07:15:00,43.3,42.8,30.13,NNE,32,0.0,-999.0,98,0.00,,,0.00,Wunderground v.1.15,2013-01-12 12:15:00,
2013-01-12 07:20:00,43.2,42.7,30.14,NNE,32,0.0,-999.0,98,0.00,,,0.00,Wunderground v.1.15,2013-01-12 12:20:00,
2013-01-12 07:26:00,43.1,42.6,30.14,NNE,32,0.0,-999.0,98,0.00,,,0.00,Wunderground v.1.15,2013-01-12 12:26:00,
2013-01-12 07:31:00,42.9,42.4,30.14,NE,51,0.0,-999.0,98,0.00,,,0.00,Wunderground v.1.15,2013-01-12 12:31:00,
2013-01-12 07:36:00,42.8,42.3,30.14,NE,51,0.0,-999.0,98,0.00,,,0.00,Wunderground v.1.15,2013-01-12 12:36:00,
2013-01-12 07:41:00,42.7,42.2,30.15,NE,51,0.0,-999.0,98,0.00,,,0.00,Wunderground v.1.15,2013-01-12 12:41:00,
2013-01-12 07:46:00,42.7,42.2,30.15,NE,51,0.0,-999.0,98,0.00,,,0.00,Wunderground v.1.15,2013-01-12 12:46:00,
2013-01-12 07:51:00,42.6,42.1,30.15,NE,51,0.0,-999.0,98,0.00,,,0.00,Wunderground v.1.15,2013-01-12 12:51:00,
2013-01-12 07:56:00,42.6,42.1,30.15,NE,51,0.0,-999.0,98,0.00,,,0.00,Wunderground v.1.15,2013-01-12 12:56:00,
2013-01-12 08:01:00,42.5,42.0,30.15,NE,51,0.0,-999.0,98,0.00,,,0.00,Wunderground v.1.15,2013-01-12 13:01:00,
2013-01-12 08:06:00,42.5,42.0,30.15,NE,51,0.0,-999.0,98,0.00,,,0.00,Wunderground v.1.15,2013-01-12 13:06:00,
2013-01-12 08:11:00,42.5,42.0,30.15,NE,51,0.0,-999.0,98,0.00,,,0.00,Wunderground v.1.15,2013-01-12 13:11:00,
2013-01-12 08:16:00,42.5,42.0,30.15,NE,51,0.0,-999.0,98,0.00,,,0.00,Wunderground v.1.15,2013-01-12 13:16:00,
2013-01-12 08:21:00,42.5,42.0,30.15,NE,51,0.0,-999.0,98,0.00,,,0.00,Wunderground v.1.15,2013-01-12 13:21:00,
2013-01-12 08:26:00,42.6,42.1,30.15,NE,51,2.0,-999.0,98,0.00,,,0.00,Wunderground v.1.15,2013-01-12 13:26:00,
2013-01-12 08:32:00,42.4,41.9,30.15,North,351,0.0,-999.0,98,0.00,,,0.00,Wunderground v.1.15,2013-01-12 13:32:00,
2013-01-12 08:37:00,42.4,41.9,30.16,North,351,0.0,-999.0,98,0.00,,,0.00,Wunderground v.1.15,2013-01-12 13:37:00,
2013-01-12 08:42:00,42.4,41.9,30.16,North,350,0.0,-999.0,98,0.00,,,0.00,Wunderground v.1.15,2013-01-12 13:42:00,
2013-01-12 08:47:00,42.4,41.9,30.16,North,351,0.0,-999.0,98,0.00,,,0.00,Wunderground v.1.15,2013-01-12 13:47:00,
2013-01-12 08:52:00,42.4,41.9,30.16,NE,46,0.0,-999.0,98,0.00,,,0.00,Wunderground v.1.15,2013-01-12 13:52:00,
2013-01-12 08:57:00,42.5,42.0,30.16,NE,46,0.0,-999.0,98,0.00,,,0.00,Wunderground v.1.15,2013-01-12 13:57:00,
2013-01-12 09:02:00,42.5,42.0,30.16,NE,46,0.0,-999.0,98,0.00,,,0.00,Wunderground v.1.15,2013-01-12 14:02:00,
2013-01-12 09:07:00,42.6,42.1,30.16,NE,46,0.0,-999.0,98,0.00,,,0.00,Wunderground v.1.15,2013-01-12 14:07:00,
2013-01-12 09:13:00,42.7,42.2,30.15,NE,46,0.0,-999.0,98,0.00,,,0.01,Wunderground v.1.15,2013-01-12 14:13:00,
2013-01-12 09:18:00,42.8,42.3,30.15,NE,46,0.0,-999.0,98,0.00,,,0.01,Wunderground v.1.15,2013-01-12 14:18:00,
2013-01-12 09:23:00,42.9,42.4,30.16,NE,34,3.0,-999.0,98,0.00,,,0.01,Wunderground v.1.15,2013-01-12 14:23:00,
2013-01-12 09:28:00,42.8,42.3,30.16,NE,34,0.0,-999.0,98,0.00,,,0.01,Wunderground v.1.15,2013-01-12 14:28:00,
2013-01-12 09:33:00,42.8,42.3,30.15,NE,55,1.0,-999.0,98,0.00,,,0.01,Wunderground v.1.15,2013-01-12 14:33:00,
2013-01-12 09:38:00,42.9,42.4,30.16,NE,55,0.0,-999.0,98,0.00,,,0.01,Wunderground v.1.15,2013-01-12 14:38:00,
2013-01-12 09:43:00,43.0,42.5,30.16,NE,55,0.0,-999.0,98,0.00,,,0.01,Wunderground v.1.15,2013-01-12 14:43:00,
2013-01-12 09:48:00,43.1,42.6,30.16,NE,55,0.0,-999.0,98,0.00,,,0.01,Wunderground v.1.15,2013-01-12 14:48:00,
2013-01-12 09:53:00,43.2,42.7,30.17,NE,53,0.0,-999.0,98,0.00,,,0.01,Wunderground v.1.15,2013-01-12 14:53:00,
2013-01-12 09:59:00,43.2,42.7,30.17,NE,53,0.0,-999.0,98,0.00,,,0.01,Wunderground v.1.15,2013-01-12 14:59:00,
2013-01-12 10:04:00,43.3,42.8,30.17,NE,53,0.0,-999.0,98,0.00,,,0.01,Wunderground v.1.15,2013-01-12 15:04:00,
2013-01-12 10:09:00,43.3,42.8,30.17,NE,53,0.0,-999.0,98,0.00,,,0.01,Wunderground v.1.15,2013-01-12 15:09:00,
2013-01-12 10:14:00,43.3,42.8,30.16,NE,53,0.0,-999.0,98,0.00,,,0.01,Wunderground v.1.15,2013-01-12 15:14:00,
2013-01-12 10:19:00,43.4,42.9,30.17,NE,53,0.0,-999.0,98,0.00,,,0.01,Wunderground v.1.15,2013-01-12 15:19:00,
2013-01-12 10:24:00,43.4,42.9,30.16,NE,53,0.0,-999.0,98,0.00,,,0.01,Wunderground v.1.15,2013-01-12 15:24:00,
2013-01-12 10:29:00,43.4,42.9,30.16,NE,53,0.0,-999.0,98,0.00,,,0.01,Wunderground v.1.15,2013-01-12 15:29:00,
2013-01-12 10:34:00,43.5,43.0,30.16,NE,53,0.0,-999.0,98,0.00,,,0.01,Wunderground v.1.15,2013-01-12 15:34:00,
2013-01-12 10:39:00,43.7,43.2,30.16,NE,53,0.0,-999.0,98,0.00,,,0.01,Wunderground v.1.15,2013-01-12 15:39:00,
2013-01-12 10:44:00,43.8,43.3,30.16,NE,53,0.0,-999.0,98,0.00,,,0.01,Wunderground v.1.15,2013-01-12 15:44:00,
2013-01-12 10:49:00,43.8,43.3,30.16,NE,53,1.0,-999.0,98,0.00,,,0.01,Wunderground v.1.15,2013-01-12 15:49:00,
2013-01-12 10:54:00,43.6,43.1,30.16,East,89,0.0,-999.0,98,0.00,,,0.01,Wunderground v.1.15,2013-01-12 15:54:00,
2013-01-12 11:00:00,43.6,43.1,30.16,East,89,0.0,-999.0,98,0.00,,,0.01,Wunderground v.1.15,2013-01-12 16:00:00,
2013-01-12 11:05:00,43.6,43.1,30.17,WNW,288,0.0,-999.0,98,0.00,,,0.01,Wunderground v.1.15,2013-01-12 16:05:00,
2013-01-12 11:10:00,43.7,43.2,30.16,NW,305,0.0,-999.0,98,0.00,,,0.01,Wunderground v.1.15,2013-01-12 16:10:00,
2013-01-12 11:15:00,43.9,43.4,30.16,NW,304,0.0,-999.0,98,0.00,,,0.01,Wunderground v.1.15,2013-01-12 16:15:00,
2013-01-12 11:20:00,44.0,43.5,30.16,NW,304,0.0,-999.0,98,0.00,,,0.01,Wunderground v.1.15,2013-01-12 16:20:00,
2013-01-12 11:25:00,44.0,43.5,30.16,NW,305,0.0,-999.0,98,0.00,,,0.01,Wunderground v.1.15,2013-01-12 16:25:00,
2013-01-12 11:30:00,44.1,43.6,30.16,NW,304,0.0,-999.0,98,0.00,,,0.01,Wunderground v.1.15,2013-01-12 16:30:00,
2013-01-12 11:35:00,44.1,43.6,30.15,NW,305,0.0,-999.0,98,0.00,,,0.01,Wunderground v.1.15,2013-01-12 16:35:00,
2013-01-12 11:40:00,44.3,43.8,30.15,NW,305,1.0,-999.0,98,0.00,,,0.01,Wunderground v.1.15,2013-01-12 16:40:00,
2013-01-12 11:45:00,44.3,43.8,30.15,NW,305,0.0,-999.0,98,0.00,,,0.01,Wunderground v.1.15,2013-01-12 16:45:00,
2013-01-12 11:50:00,44.2,43.7,30.15,NW,304,1.0,-999.0,98,0.00,,,0.01,Wunderground v.1.15,2013-01-12 16:50:00,
2013-01-12 11:55:00,44.3,43.8,30.15,WNW,301,0.0,-999.0,98,0.00,,,0.01,Wunderground v.1.15,2013-01-12 16:55:00,
2013-01-12 12:00:00,44.5,44.0,30.14,WNW,301,0.0,-999.0,98,0.00,,,0.01,Wunderground v.1.15,2013-01-12 17:00:00,
2013-01-12 12:05:00,44.7,44.2,30.14,NNW,328,0.0,-999.0,98,0.00,,,0.01,Wunderground v.1.15,2013-01-12 17:05:00,
2013-01-12 12:10:00,44.9,44.4,30.14,NNW,342,0.0,-999.0,98,0.00,,,0.01,Wunderground v.1.15,2013-01-12 17:10:00,
2013-01-12 12:15:00,45.0,44.5,30.14,ENE,61,1.0,-999.0,98,0.00,,,0.01,Wunderground v.1.15,2013-01-12 17:15:00,
2013-01-12 12:21:00,45.1,44.6,30.14,ENE,60,0.0,-999.0,98,0.00,,,0.01,Wunderground v.1.15,2013-01-12 17:21:00,
2013-01-12 12:26:00,45.3,44.8,30.13,ENE,60,0.0,-999.0,98,0.00,,,0.01,Wunderground v.1.15,2013-01-12 17:26:00,
2013-01-12 12:31:00,45.5,45.0,30.13,ENE,60,2.0,-999.0,98,0.00,,,0.01,Wunderground v.1.15,2013-01-12 17:31:00,
2013-01-12 12:36:00,45.3,44.8,30.14,ENE,60,0.0,-999.0,98,0.00,,,0.01,Wunderground v.1.15,2013-01-12 17:36:00,
2013-01-12 12:41:00,45.3,44.8,30.14,ENE,60,1.0,-999.0,98,0.00,,,0.01,Wunderground v.1.15,2013-01-12 17:41:00,
2013-01-12 12:46:00,45.4,44.9,30.14,WSW,257,0.0,-999.0,98,0.00,,,0.01,Wunderground v.1.15,2013-01-12 17:46:00,
2013-01-12 12:51:00,45.5,45.0,30.14,WSW,257,0.0,-999.0,98,0.00,,,0.01,Wunderground v.1.15,2013-01-12 17:51:00,
2013-01-12 12:56:00,45.5,45.0,30.13,WSW,257,0.0,-999.0,98,0.00,,,0.01,Wunderground v.1.15,2013-01-12 17:56:00,
2013-01-12 13:01:00,45.7,45.2,30.13,WSW,258,0.0,-999.0,98,0.00,,,0.01,Wunderground v.1.15,2013-01-12 18:01:00,
2013-01-12 13:07:00,45.7,45.2,30.13,NW,319,0.0,-999.0,98,0.00,,,0.01,Wunderground v.1.15,2013-01-12 18:07:00,
2013-01-12 13:12:00,45.8,45.3,30.13,NW,316,2.0,-999.0,98,0.00,,,0.01,Wunderground v.1.15,2013-01-12 18:12:00,
2013-01-12 13:17:00,45.8,45.3,30.13,NNW,337,0.0,-999.0,98,0.00,,,0.01,Wunderground v.1.15,2013-01-12 18:17:00,
2013-01-12 13:22:00,46.1,45.6,30.12,SW,225,1.0,-999.0,98,0.00,,,0.01,Wunderground v.1.15,2013-01-12 18:22:00,
2013-01-12 13:27:00,46.2,45.7,30.12,East,80,0.0,-999.0,98,0.00,,,0.01,Wunderground v.1.15,2013-01-12 18:27:00,
2013-01-12 13:33:00,46.1,45.6,30.12,South,191,0.0,-999.0,98,0.00,,,0.01,Wunderground v.1.15,2013-01-12 18:33:00,
2013-01-12 13:38:00,46.1,45.6,30.12,South,191,0.0,-999.0,98,0.00,,,0.01,Wunderground v.1.15,2013-01-12 18:38:00,
2013-01-12 13:43:00,46.1,45.6,30.12,South,191,2.0,-999.0,98,0.00,,,0.01,Wunderground v.1.15,2013-01-12 18:43:00,
2013-01-12 13:48:00,46.1,45.6,30.12,South,191,1.0,-999.0,98,0.00,,,0.01,Wunderground v.1.15,2013-01-12 18:48:00,
2013-01-12 13:53:00,46.1,45.6,30.12,South,191,0.0,-999.0,98,0.00,,,0.01,Wunderground v.1.15,2013-01-12 18:53:00,
2013-01-12 13:58:00,46.2,45.7,30.12,SSW,192,0.0,-999.0,98,0.00,,,0.01,Wunderground v.1.15,2013-01-12 18:58:00,
2013-01-12 14:03:00,46.3,45.8,30.12,SW,236,1.0,-999.0,98,0.00,,,0.01,Wunderground v.1.15,2013-01-12 19:03:00,
2013-01-12 14:08:00,46.1,45.6,30.13,SW,223,4.0,-999.0,98,0.00,,,0.01,Wunderground v.1.15,2013-01-12 19:08:00,
2013-01-12 14:13:00,45.9,45.4,30.13,NNW,339,0.0,-999.0,98,0.00,,,0.01,Wunderground v.1.15,2013-01-12 19:13:00,
2013-01-12 14:19:00,45.9,45.4,30.13,NNW,337,0.0,-999.0,98,0.00,,,0.01,Wunderground v.1.15,2013-01-12 19:19:00,
2013-01-12 14:24:00,45.8,45.3,30.14,SW,217,1.0,-999.0,98,0.00,,,0.01,Wunderground v.1.15,2013-01-12 19:24:00,
2013-01-12 14:29:00,45.7,45.2,30.14,SW,217,0.0,-999.0,98,0.00,,,0.01,Wunderground v.1.15,2013-01-12 19:29:00,
2013-01-12 14:34:00,45.7,45.2,30.13,West,269,0.0,-999.0,98,0.00,,,0.01,Wunderground v.1.15,2013-01-12 19:34:00,
2013-01-12 14:39:00,45.8,45.3,30.13,West,269,0.0,-999.0,98,0.00,,,0.01,Wunderground v.1.15,2013-01-12 19:39:00,
2013-01-12 14:44:00,45.8,45.3,30.12,West,269,0.0,-999.0,98,0.00,,,0.01,Wunderground v.1.15,2013-01-12 19:44:00,
2013-01-12 14:49:00,45.9,45.4,30.12,West,270,0.0,-999.0,98,0.00,,,0.01,Wunderground v.1.15,2013-01-12 19:49:00,
2013-01-12 14:55:00,46.0,45.5,30.12,West,269,0.0,-999.0,98,0.00,,,0.01,Wunderground v.1.15,2013-01-12 19:55:00,
2013-01-12 15:00:00,46.1,45.6,30.12,West,269,0.0,-999.0,98,0.00,,,0.01,Wunderground v.1.15,2013-01-12 20:00:00,
2013-01-12 15:05:00,46.2,45.7,30.12,SSE,168,2.0,-999.0,98,0.00,,,0.01,Wunderground v.1.15,2013-01-12 20:05:00,
2013-01-12 15:10:00,46.3,45.8,30.12,SSE,168,0.0,-999.0,98,0.00,,,0.01,Wunderground v.1.15,2013-01-12 20:10:00,
2013-01-12 15:15:00,46.4,45.9,30.12,SSE,168,0.0,-999.0,98,0.00,,,0.01,Wunderground v.1.15,2013-01-12 20:15:00,
2013-01-12 15:20:00,46.5,46.0,30.12,SSE,168,0.0,-999.0,98,0.00,,,0.01,Wunderground v.1.15,2013-01-12 20:20:00,
2013-01-12 15:25:00,46.4,45.9,30.12,SSE,168,0.0,-999.0,98,0.00,,,0.01,Wunderground v.1.15,2013-01-12 20:25:00,
2013-01-12 15:30:00,46.4,45.9,30.12,SSE,168,0.0,-999.0,98,0.00,,,0.01,Wunderground v.1.15,2013-01-12 20:30:00,
2013-01-12 15:36:00,46.5,46.0,30.12,SSE,168,0.0,-999.0,98,0.00,,,0.01,Wunderground v.1.15,2013-01-12 20:36:00,
2013-01-12 15:41:00,46.6,46.1,30.12,SSE,168,0.0,-999.0,98,0.00,,,0.01,Wunderground v.1.15,2013-01-12 20:41:00,
2013-01-12 15:46:00,46.7,46.2,30.12,SSE,168,0.0,-999.0,98,0.00,,,0.01,Wunderground v.1.15,2013-01-12 20:46:00,
2013-01-12 15:51:00,46.7,46.2,30.12,SSE,168,0.0,-999.0,98,0.00,,,0.01,Wunderground v.1.15,2013-01-12 20:51:00,
2013-01-12 15:56:00,46.7,46.2,30.13,SSE,168,0.0,-999.0,98,0.00,,,0.01,Wunderground v.1.15,2013-01-12 20:56:00,
2013-01-12 16:01:00,46.7,46.2,30.13,SSE,168,0.0,-999.0,98,0.00,,,0.01,Wunderground v.1.15,2013-01-12 21:01:00,
2013-01-12 16:06:00,46.7,46.2,30.13,SSE,168,0.0,-999.0,98,0.00,,,0.01,Wunderground v.1.15,2013-01-12 21:06:00,
2013-01-12 16:11:00,46.7,46.2,30.13,SSE,168,0.0,-999.0,98,0.00,,,0.01,Wunderground v.1.15,2013-01-12 21:11:00,
2013-01-12 16:16:00,46.7,46.2,30.14,SSE,168,1.0,-999.0,98,0.00,,,0.01,Wunderground v.1.15,2013-01-12 21:16:00,
2013-01-12 16:21:00,46.7,46.2,30.14,SSE,168,0.0,-999.0,98,0.00,,,0.01,Wunderground v.1.15,2013-01-12 21:21:00,
2013-01-12 16:26:00,46.7,46.2,30.14,SSE,168,0.0,-999.0,98,0.00,,,0.01,Wunderground v.1.15,2013-01-12 21:26:00,
2013-01-12 16:31:00,46.7,46.2,30.13,SSE,168,0.0,-999.0,98,0.00,,,0.01,Wunderground v.1.15,2013-01-12 21:31:00,
2013-01-12 16:37:00,46.7,46.2,30.13,SSE,168,0.0,-999.0,98,0.00,,,0.01,Wunderground v.1.15,2013-01-12 21:37:00,
2013-01-12 16:42:00,46.8,46.3,30.13,SSE,168,0.0,-999.0,98,0.00,,,0.01,Wunderground v.1.15,2013-01-12 21:42:00,
2013-01-12 16:47:00,46.8,46.3,30.13,SSE,168,0.0,-999.0,98,0.00,,,0.01,Wunderground v.1.15,2013-01-12 21:47:00,
2013-01-12 16:52:00,46.8,46.3,30.13,SSE,168,0.0,-999.0,98,0.00,,,0.01,Wunderground v.1.15,2013-01-12 21:52:00,
2013-01-12 16:57:00,46.8,46.3,30.13,SSE,168,0.0,-999.0,98,0.00,,,0.01,Wunderground v.1.15,2013-01-12 21:57:00,
2013-01-12 17:02:00,46.8,46.3,30.13,SSE,168,0.0,-999.0,98,0.00,,,0.01,Wunderground v.1.15,2013-01-12 22:02:00,
2013-01-12 17:07:00,46.8,46.3,30.13,SSE,168,0.0,-999.0,98,0.00,,,0.01,Wunderground v.1.15,2013-01-12 22:07:00,
2013-01-12 17:12:00,46.8,46.3,30.13,SSE,168,0.0,-999.0,98,0.00,,,0.01,Wunderground v.1.15,2013-01-12 22:12:00,
2013-01-12 17:17:00,46.8,46.3,30.13,SSE,168,0.0,-999.0,98,0.00,,,0.01,Wunderground v.1.15,2013-01-12 22:17:00,
2013-01-12 17:22:00,46.8,46.3,30.14,SSE,168,0.0,-999.0,98,0.00,,,0.01,Wunderground v.1.15,2013-01-12 22:22:00,
2013-01-12 17:28:00,46.8,46.3,30.14,SSE,168,0.0,-999.0,98,0.00,,,0.01,Wunderground v.1.15,2013-01-12 22:28:00,
2013-01-12 17:33:00,46.8,46.3,30.14,SSE,168,0.0,-999.0,98,0.00,,,0.01,Wunderground v.1.15,2013-01-12 22:33:00,
2013-01-12 17:38:00,46.8,46.3,30.14,SSE,168,0.0,-999.0,98,0.00,,,0.01,Wunderground v.1.15,2013-01-12 22:38:00,
2013-01-12 17:43:00,46.7,46.2,30.13,SSE,153,1.0,-999.0,98,0.00,,,0.01,Wunderground v.1.15,2013-01-12 22:43:00,
2013-01-12 17:48:00,46.7,46.2,30.14,ESE,119,0.0,-999.0,98,0.00,,,0.01,Wunderground v.1.15,2013-01-12 22:48:00,
2013-01-12 17:53:00,46.7,46.2,30.15,ESE,119,0.0,-999.0,98,0.00,,,0.01,Wunderground v.1.15,2013-01-12 22:53:00,
2013-01-12 17:58:00,46.7,46.2,30.14,ESE,119,0.0,-999.0,98,0.00,,,0.01,Wunderground v.1.15,2013-01-12 22:58:00,
2013-01-12 18:03:00,46.7,46.2,30.14,ESE,119,0.0,-999.0,98,0.00,,,0.01,Wunderground v.1.15,2013-01-12 23:03:00,
2013-01-12 18:08:00,46.7,46.2,30.14,ESE,119,0.0,-999.0,98,0.00,,,0.01,Wunderground v.1.15,2013-01-12 23:08:00,
2013-01-12 18:13:00,46.7,46.2,30.14,ESE,119,0.0,-999.0,98,0.00,,,0.01,Wunderground v.1.15,2013-01-12 23:13:00,
2013-01-12 18:19:00,46.7,46.2,30.14,ESE,119,0.0,-999.0,98,0.00,,,0.01,Wunderground v.1.15,2013-01-12 23:19:00,
2013-01-12 18:24:00,46.7,46.2,30.14,ESE,119,0.0,-999.0,98,0.00,,,0.01,Wunderground v.1.15,2013-01-12 23:24:00,
2013-01-12 18:29:00,46.7,46.2,30.13,ESE,119,0.0,-999.0,98,0.00,,,0.01,Wunderground v.1.15,2013-01-12 23:29:00,
2013-01-12 18:34:00,46.7,46.2,30.13,ESE,119,0.0,-999.0,98,0.00,,,0.01,Wunderground v.1.15,2013-01-12 23:34:00,
2013-01-12 18:39:00,46.6,46.1,30.13,ESE,119,0.0,-999.0,98,0.00,,,0.01,Wunderground v.1.15,2013-01-12 23:39:00,
2013-01-12 18:44:00,46.6,46.1,30.13,ESE,119,0.0,-999.0,98,0.00,,,0.01,Wunderground v.1.15,2013-01-12 23:44:00,
2013-01-12 18:49:00,46.6,46.1,30.13,ESE,119,0.0,-999.0,98,0.00,,,0.01,Wunderground v.1.15,2013-01-12 23:49:00,
2013-01-12 18:54:00,46.6,46.1,30.13,ESE,119,0.0,-999.0,98,0.00,,,0.01,Wunderground v.1.15,2013-01-12 23:54:00,
2013-01-12 19:00:00,46.5,46.0,30.13,ESE,119,0.0,-999.0,98,0.00,,,0.01,Wunderground v.1.15,2013-01-13 00:00:00,
2013-01-12 19:05:00,46.5,46.0,30.13,ESE,119,0.0,-999.0,98,0.00,,,0.01,Wunderground v.1.15,2013-01-13 00:05:00,
2013-01-12 19:10:00,46.5,46.0,30.13,ESE,119,0.0,-999.0,98,0.00,,,0.01,Wunderground v.1.15,2013-01-13 00:10:00,
2013-01-12 19:15:00,46.5,46.0,30.13,ESE,119,0.0,-999.0,98,0.00,,,0.01,Wunderground v.1.15,2013-01-13 00:15:00,
2013-01-12 19:21:00,46.5,46.0,30.13,ESE,119,0.0,-999.0,98,0.00,,,0.01,Wunderground v.1.15,2013-01-13 00:21:00,
2013-01-12 19:26:00,46.5,46.0,30.13,ESE,119,0.0,-999.0,98,0.00,,,0.01,Wunderground v.1.15,2013-01-13 00:26:00,
2013-01-12 19:31:00,46.4,45.9,30.13,ESE,119,0.0,-999.0,98,0.00,,,0.01,Wunderground v.1.15,2013-01-13 00:31:00,
2013-01-12 19:36:00,46.4,45.9,30.12,ESE,119,0.0,-999.0,98,0.00,,,0.01,Wunderground v.1.15,2013-01-13 00:36:00,
2013-01-12 19:41:00,46.4,45.9,30.12,ESE,119,0.0,-999.0,98,0.00,,,0.01,Wunderground v.1.15,2013-01-13 00:41:00,
2013-01-12 19:46:00,46.4,45.9,30.12,ESE,119,0.0,-999.0,98,0.00,,,0.01,Wunderground v.1.15,2013-01-13 00:46:00,
2013-01-12 19:51:00,46.4,45.9,30.12,ESE,119,0.0,-999.0,98,0.00,,,0.01,Wunderground v.1.15,2013-01-13 00:51:00,
2013-01-12 19:56:00,46.4,45.9,30.13,ESE,119,0.0,-999.0,98,0.00,,,0.01,Wunderground v.1.15,2013-01-13 00:56:00,
2013-01-12 20:01:00,46.4,45.9,30.13,ESE,119,0.0,-999.0,98,0.00,,,0.01,Wunderground v.1.15,2013-01-13 01:01:00,
2013-01-12 20:07:00,46.4,45.9,30.13,ESE,119,0.0,-999.0,98,0.00,,,0.01,Wunderground v.1.15,2013-01-13 01:07:00,
2013-01-12 20:12:00,46.4,45.9,30.13,ESE,119,0.0,-999.0,98,0.00,,,0.01,Wunderground v.1.15,2013-01-13 01:12:00,
2013-01-12 20:17:00,46.2,45.7,30.13,ESE,119,0.0,-999.0,98,0.00,,,0.01,Wunderground v.1.15,2013-01-13 01:17:00,
2013-01-12 20:22:00,46.0,45.5,30.13,ESE,119,0.0,-999.0,98,0.00,,,0.01,Wunderground v.1.15,2013-01-13 01:22:00,
2013-01-12 20:27:00,45.9,45.4,30.14,ESE,119,0.0,-999.0,98,0.00,,,0.01,Wunderground v.1.15,2013-01-13 01:27:00,
2013-01-12 20:33:00,45.8,45.3,30.14,ESE,119,0.0,-999.0,98,0.00,,,0.01,Wunderground v.1.15,2013-01-13 01:33:00,
2013-01-12 20:38:00,45.7,45.2,30.14,ESE,119,0.0,-999.0,98,0.00,,,0.01,Wunderground v.1.15,2013-01-13 01:38:00,
2013-01-12 20:43:00,45.7,45.2,30.14,ESE,119,1.0,-999.0,98,0.00,,,0.01,Wunderground v.1.15,2013-01-13 01:43:00,
2013-01-12 20:48:00,45.6,45.1,30.13,ESE,119,0.0,-999.0,98,0.00,,,0.01,Wunderground v.1.15,2013-01-13 01:48:00,
2013-01-12 20:53:00,45.6,45.1,30.13,ESE,119,0.0,-999.0,98,0.00,,,0.01,Wunderground v.1.15,2013-01-13 01:53:00,
2013-01-12 20:58:00,45.5,45.0,30.13,ESE,119,1.0,-999.0,98,0.00,,,0.01,Wunderground v.1.15,2013-01-13 01:58:00,
2013-01-12 21:03:00,45.5,45.0,30.13,ESE,119,0.0,-999.0,98,0.00,,,0.01,Wunderground v.1.15,2013-01-13 02:03:00,
2013-01-12 21:08:00,45.5,45.0,30.13,ESE,119,0.0,-999.0,98,0.00,,,0.01,Wunderground v.1.15,2013-01-13 02:08:00,
2013-01-12 21:14:00,45.5,45.0,30.13,ESE,119,0.0,-999.0,98,0.00,,,0.01,Wunderground v.1.15,2013-01-13 02:14:00,
2013-01-12 21:19:00,45.5,45.0,30.13,ESE,119,0.0,-999.0,98,0.00,,,0.01,Wunderground v.1.15,2013-01-13 02:19:00,
2013-01-12 21:24:00,45.4,44.9,30.13,ESE,119,0.0,-999.0,98,0.00,,,0.01,Wunderground v.1.15,2013-01-13 02:24:00,
2013-01-12 21:29:00,45.5,45.0,30.13,ESE,119,0.0,-999.0,98,0.00,,,0.01,Wunderground v.1.15,2013-01-13 02:29:00,
2013-01-12 21:34:00,45.5,45.0,30.14,ESE,119,0.0,-999.0,98,0.00,,,0.01,Wunderground v.1.15,2013-01-13 02:34:00,
2013-01-12 21:39:00,45.5,45.0,30.14,ESE,119,0.0,-999.0,98,0.00,,,0.01,Wunderground v.1.15,2013-01-13 02:39:00,
2013-01-12 21:44:00,45.5,45.0,30.14,ESE,119,0.0,-999.0,98,0.00,,,0.01,Wunderground v.1.15,2013-01-13 02:44:00,
2013-01-12 21:50:00,45.6,45.1,30.14,ESE,119,0.0,-999.0,98,0.00,,,0.01,Wunderground v.1.15,2013-01-13 02:50:00,
2013-01-12 21:55:00,45.6,45.1,30.14,ESE,119,0.0,-999.0,98,0.00,,,0.01,Wunderground v.1.15,2013-01-13 02:55:00,
2013-01-12 22:00:00,45.6,45.1,30.14,ESE,119,0.0,-999.0,98,0.00,,,0.01,Wunderground v.1.15,2013-01-13 03:00:00,
2013-01-12 22:05:00,45.6,45.1,30.14,ESE,119,0.0,-999.0,98,0.00,,,0.01,Wunderground v.1.15,2013-01-13 03:05:00,
2013-01-12 22:10:00,45.6,45.1,30.14,ESE,119,0.0,-999.0,98,0.00,,,0.01,Wunderground v.1.15,2013-01-13 03:10:00,
2013-01-12 22:15:00,45.6,45.1,30.14,ESE,119,0.0,-999.0,98,0.00,,,0.01,Wunderground v.1.15,2013-01-13 03:15:00,
2013-01-12 22:20:00,45.6,45.1,30.13,ESE,119,0.0,-999.0,98,0.00,,,0.01,Wunderground v.1.15,2013-01-13 03:20:00,
2013-01-12 22:25:00,45.6,45.1,30.13,ESE,119,2.0,-999.0,98,0.00,,,0.01,Wunderground v.1.15,2013-01-13 03:25:00,
2013-01-12 22:31:00,45.6,45.1,30.12,ESE,119,0.0,-999.0,98,0.00,,,0.01,Wunderground v.1.15,2013-01-13 03:31:00,
2013-01-12 22:36:00,45.6,45.1,30.13,ESE,119,0.0,-999.0,98,0.00,,,0.01,Wunderground v.1.15,2013-01-13 03:36:00,
2013-01-12 22:41:00,45.6,45.3,30.13,ESE,119,0.0,-999.0,99,0.00,,,0.01,Wunderground v.1.15,2013-01-13 03:41:00,
2013-01-12 22:46:00,45.6,45.3,30.13,ESE,119,0.0,-999.0,99,0.00,,,0.01,Wunderground v.1.15,2013-01-13 03:46:00,
2013-01-12 22:51:00,45.6,45.3,30.12,ESE,119,0.0,-999.0,99,0.00,,,0.01,Wunderground v.1.15,2013-01-13 03:51:00,
2013-01-12 22:56:00,45.6,45.3,30.12,ESE,119,0.0,-999.0,99,0.00,,,0.01,Wunderground v.1.15,2013-01-13 03:56:00,
2013-01-12 23:01:00,45.7,45.4,30.12,ESE,119,0.0,-999.0,99,0.00,,,0.01,Wunderground v.1.15,2013-01-13 04:01:00,
2013-01-12 23:07:00,45.7,45.2,30.12,ESE,119,0.0,-999.0,98,0.00,,,0.01,Wunderground v.1.15,2013-01-13 04:07:00,
2013-01-12 23:12:00,45.7,45.2,30.13,ESE,119,0.0,-999.0,98,0.00,,,0.01,Wunderground v.1.15,2013-01-13 04:12:00,
2013-01-12 23:17:00,45.7,45.2,30.13,ESE,119,0.0,-999.0,98,0.00,,,0.01,Wunderground v.1.15,2013-01-13 04:17:00,
2013-01-12 23:22:00,45.8,45.3,30.13,ESE,119,0.0,-999.0,98,0.00,,,0.01,Wunderground v.1.15,2013-01-13 04:22:00,
2013-01-12 23:27:00,45.7,45.2,30.13,ESE,119,0.0,-999.0,98,0.00,,,0.01,Wunderground v.1.15,2013-01-13 04:27:00,
2013-01-12 23:32:00,45.7,45.2,30.13,ESE,119,0.0,-999.0,98,0.00,,,0.01,Wunderground v.1.15,2013-01-13 04:32:00,
2013-01-12 23:37:00,45.7,45.2,30.13,ESE,119,0.0,-999.0,98,0.00,,,0.01,Wunderground v.1.15,2013-01-13 04:37:00,
2013-01-12 23:43:00,45.8,45.3,30.13,ESE,119,0.0,-999.0,98,0.00,,,0.01,Wunderground v.1.15,2013-01-13 04:43:00,
2013-01-12 23:48:00,45.8,45.3,30.13,ESE,119,0.0,-999.0,98,0.00,,,0.01,Wunderground v.1.15,2013-01-13 04:48:00,
2013-01-12 23:53:00,45.8,45.3,30.14,ESE,119,0.0,-999.0,98,0.00,,,0.01,Wunderground v.1.15,2013-01-13 04:53:00,
2013-01-12 23:58:00,45.8,45.3,30.14,ESE,119,0.0,-999.0,98,0.00,,,0.01,Wunderground v.1.15,2013-01-13 04:58:00,